Location: Kuffner-Sternwarte
(48.2130°N, 16.2960°E)
Time: 15:21:14
(UTC+02:00)

COROT - Pass Details

Date: 21 March 2017
Orbit: 600 x 890 km, 90.0° (Epoch: 27 March)

Event Time Altitude Azimuth Distance (km) Brightness Sun altitude
Rises 23:52:35 0° 11° (N) 3,019 9.9 -41.1°
Reaches altitude 10° 23:55:03 10° 23° (NNE) 2,144 8.9 -41.2°
Enters shadow 23:55:04 10° 23° (NNE) 2,140 8.9 -41.2°
